Location: Boitzum
(52.1496°N, 9.6943°E)
Time: 15:00:18
(UTC+00:00)

Cosmos 1833 Rocket - Pass Details

Date: 13 January 2026
Orbit: 832 x 838 km, 71.0° (Epoch: 16 February)

Event Time Altitude Azimuth Distance (km) Brightness Sun altitude
Exits shadow 05:40:59 23° 280° (W) 1,725 3.7 -15.1°
Maximum altitude 05:42:25 25° 257° (WSW) 1,620 3.7 -14.9°
Drops below altitude 10° 05:46:54 10° 203° (SSW) 2,442 5.0 -14.3°
Sets 05:49:42 0° 191° (S) 3,370 5.9 -13.9°
